sat.trackr.live / text

‹ back to catalog

ZORKIY-2M-VPE

NORAD 67252 · 2025-313E

PAYLOAD ACTIVE UNKNOWN

§ Identity

Operator
Country
CIS
Launch date
2025-12-28
Launch site
VOSTO
Launch vehicle
Mass (kg)
RCS (m²)

External: N2YO · Heavens-Above · Gunter

§ Orbital elements

Epoch: 2026-09-20T11:12:13.150368Z

Period
94.40 min
Inclination
97.3864°
Eccentricity
0.0009977
Mean motion
15.25377112 rev/d
Perigee alt
482.8 km
Apogee alt
496.5 km
Semi-major
6,867.8 km
B*
1.7436e-4
RAAN
337.2258°
Arg perigee
18.2803°
Mean anomaly
341.8792°
Rev number
4,049

§ Raw data

ZORKIY-2M-VPE1 67252U 25313E   26263.46681887  .00004333  00000+0  17436-3 0  99992 67252  97.3864 337.2258 0009977  18.2803 341.8792 15.25377112 40490

JSON: /api/v1/satellites/67252 · /tle

For live sub-satellite position, see the globe view (requires WebGL).

§ Visibility from observer

Set your observer location to see the next 7 days of passes ≥ 10°. The values pass through the URL so the page stays shareable.

No JS? Fill the form by hand. The geolocation button needs JavaScript.